Weather observations for the past three days for
Alma, Bacon County Airport
Imperial (Metric)
Date Time (edt) Wind (mph) Vis. (mi.) Weather Sky Cond. Temperature (ºF) Relative Humidity Wind Chill (°F) Heat Index (°F) Pressure Precipitation (in)
Air Dwpt 6 hour altimeter (in) sea level (mb) 1 hr 3 hr 6 hr
Max. Min.
23 15:53 SE 5 10.00 Fair CLR 91.9 71.1 51% 99 30.08 1018.4
23 14:53 Calm 10.00 A Few Clouds FEW046 93 71.1 49% 100 30.1 1019.0
23 13:53 Calm 10.00 A Few Clouds FEW041 91 72 91.9 75 54% 99 30.12 1019.6
23 12:53 SW 7 10.00 Partly Cloudy SCT037 90 73.9 59% 99 30.13 1020.0
23 11:53 Calm 10.00 Partly Cloudy SCT026 88 73.9 63% 97 30.14 1020.3
23 10:53 Calm 10.00 Fair CLR 84.9 75.9 75% 94 30.14 1020.3
23 09:53 NW 3 10.00 Fair CLR 82.9 77 82% 92 30.13 1020.0
23 08:53 S 3 10.00 Fair CLR 79 78.1 97% 83 30.13 1020.0
23 07:53 Calm 9.00 Fair CLR 75.2 0 75 72 0% 30.12 1019.7
23 06:53 Calm 6.00 Fog/Mist CLR 72 72 100% 30.1 1019.0
23 05:53 Calm 7.00 Fair CLR 72 72 100% 30.09 1018.6
23 04:53 Calm 8.00 Fair CLR 73 72 96% 30.07 1017.9
23 03:53 Calm 8.00 Fair CLR 73 72 96% 30.06 1017.5
23 02:53 Calm 8.00 Fair CLR 73.9 73 97% 30.07 1017.8
23 01:53 Calm 9.00 Fair CLR 73 73 79 73 100% 30.07 1018.0
23 00:53 SE 3 10.00 Fair CLR 75 73.9 96% 73 30.07 1018.0
22 23:53 S 3 10.00 Fair CLR 75.9 75.9 100% 75 30.07 1017.9
22 22:53 Calm 9.00 Fair CLR 75.9 75 97% 75 30.08 1018.3
22 21:53 Calm 10.00 Fair CLR 75.9 75 97% 75 30.08 1018.2
22 20:53 Calm 10.00 Fair CLR 77 75 94% 78 30.05 1017.1
22 19:53 NW 5 10.00 Thunderstorm FEW022 BKN046 OVC075 79 75.9 93 79 90% 83 30.06 1017.4
22 18:53 SE 7 10.00 Thunderstorm in Vicinity SCT070 BKN100 82.9 75 77% 90 30.03 1016.6
22 17:53 Calm 10.00 Mostly Cloudy BKN050 BKN070 90 72 56% 97 30 1015.4
22 16:53 Calm 10.00 Partly Cloudy FEW065 SCT090 90 71.1 54% 96 30 1015.6
22 15:53 W 5 10.00 Mostly Cloudy BKN060 BKN075 89.1 71.1 55% 95 30.02 1016.2
22 14:53 SW 3 10.00 Fair CLR 90 72 56% 97 30.04 1016.9
22 13:53 Calm 10.00 Overcast FEW035 SCT044 OVC070 89.1 73 89.1 75 59% 97 30.06 1017.7
22 12:53 W 7 10.00 Mostly Cloudy BKN033 BKN041 87.1 75 67% 97 30.08 1018.1
22 11:53 NW 6 10.00 Mostly Cloudy BKN025 86 73.9 67% 94 30.08 1018.4
22 10:53 NW 7 10.00 Partly Cloudy SCT017 SCT029 84.9 77 77% 95 30.08 1018.4
22 09:53 NW 5 10.00 A Few Clouds FEW008 82 77 85% 90 30.08 1018.2
22 08:53 S 3 10.00 Mostly Cloudy BKN005 77 77 100% 78 30.07 1018.1
22 07:53 Calm 6.00 Fog/Mist BKN002 75 75 75 72 100% 72 30.06 1017.5
22 06:53 Calm 2.50 Fog/Mist FEW003 72 72 100% 30.04 1017.1
22 05:53 Calm 5.00 Fog/Mist CLR 73 73 100% 30.03 1016.5
22 04:53 S 3 9.00 Fair CLR 73.9 73.9 100% 30.02 1016.2
22 03:53 S 3 5.00 Fog/Mist BKN002 73.9 73.9 100% 30.01 1016.0
22 02:53 SE 3 5.00 Fog/Mist OVC003 75 75 100% 72 30.02 1016.1
22 01:53 Calm 9.00 A Few Clouds FEW004 75 75 77 75 100% 72 30.04 1016.9 0.11
22 00:53 SE 7 10.00 A Few Clouds FEW100 75 75 100% 72 30.08 1018.1 0.02
21 23:53 S 5 4.00 Rain Fog/Mist FEW044 SCT090 BKN110 75 75 100% 72 30.11 1019.1 0.06
21 22:53 S 7 4.00 Thunderstorm in Vicinity Rain Fog/Mist FEW055 BKN090 OVC110 75.9 75 97% 75 30.1 1018.9 0.03 0.03
21 20:53 SE 5 10.00 Overcast SCT041 BKN049 OVC080 77 73.9 90% 78 30.08 1018.2
21 19:53 E 6 10.00 Fair CLR 77 75 91 77 94% 78 30.04 1017.1 0.05
21 18:53 Calm 10.00 Thunderstorm in Vicinity BKN039 OVC055 79 75 88% 83 30.03 1016.6
21 17:53 Calm 10.00 Thunderstorm in Vicinity SCT045 BKN055 BKN100 84.9 77 77% 95 30 1015.4
21 16:53 SE 8 10.00 A Few Clouds FEW110 87.1 78.1 75% 100 30.01 1015.9 0.05
21 15:53 Calm 2.50 Light Rain Fog/Mist FEW035 BKN046 OVC090 82 78.1 88% 91 30.03 1016.6 0.05
21 14:53 S 6 10.00 A Few Clouds FEW055 90 75 62% 100 30.03 1016.7
21 13:53 SE 6 10.00 Partly Cloudy SCT038 87.1 75 88 73 67% 97 30.07 1017.9
21 12:53 Calm 10.00 Partly Cloudy SCT024 87.1 75 67% 97 30.09 1018.7
21 11:53 Calm 10.00 Fair CLR 84 73.9 72% 91 30.09 1018.8
21 10:53 Calm 10.00 A Few Clouds FEW023 82 75 79% 89 30.1 1019.0
21 09:53 Calm 10.00 A Few Clouds FEW008 78.1 75 90% 81 30.1 1019.0
21 08:53 Calm 10.00 Mostly Cloudy BKN005 77 75 94% 78 30.1 1019.0
21 07:53 Calm 5.00 Fog/Mist OVC003 73 73 73 72 100% 30.09 1018.7
21 06:53 Calm 4.00 Fog/Mist OVC002 72 72 100% 30.08 1018.3
21 05:53 Calm 8.00 Overcast OVC003 73 72 96% 30.07 1018.0
21 04:53 W 3 10.00 Overcast OVC003 73 72 96% 30.07 1018.0
21 03:53 S 5 10.00 Overcast OVC005 73 73 100% 30.08 1018.2
21 02:53 SE 3 10.00 Overcast OVC005 73 73 100% 30.09 1018.6
21 01:53 S 7 10.00 Overcast OVC005 73 73 73.9 73 100% 30.12 1019.6
21 00:53 SE 3 10.00 Mostly Cloudy BKN005 73 73 100% 30.12 1019.5
20 23:53 SE 5 10.00 Overcast OVC005 73 73 100% 30.14 1020.2
20 22:53 Calm 10.00 Overcast OVC006 73 73 100% 30.14 1020.2
20 21:53 Calm 10.00 Overcast OVC005 73.9 73 97% 30.13 1019.9
20 20:53 SE 6 10.00 A Few Clouds FEW120 73.9 73 97% 30.1 1019.0
20 19:53 E 3 10.00 Fair CLR 73 72 91 73 96% 30.11 1019.3 0.76
20 18:53 W 3 5.00 Thunderstorm in Vicinity Light Rain Fog/Mist SCT030 SCT080 BKN090 73 72 96% 30.13 1019.9 0.68
20 17:53 NW 18 G 28 1.75 Thunderstorm Rain Fog/Mist FEW016 SCT031 OVC040 77 73.9 90% 78 30.1 1019.0 0.08
20 16:53 SW 3 10.00 Thunderstorm in Vicinity FEW043 FEW085 88 75 66% 98 30.03 1016.7
Date Time (edt) Wind (mph) Vis. (mi.) Weather Sky Cond. Air Dwpt Max. Min. Relative Humidity Wind Chill (°F) Heat Index (°F) altimeter (in) sea level (mb) 1 hr 3 hr 6 hr
6 hour
Temperature (ºF) Pressure Precipitation (in)